Dewpoint
59 55 55 53 45 48 43 41 31 34 31 24 23 28 27 27 29 25 27 25 28 25 29 28 28 30 27 28 23 23 25 24 24 25 30 44 48 52 59 64 63 63 65 66 68 70 71 71 72 73 73 73 73 73 73 72 72 72 72 71 71 71 70 70 69 70 69 68 68 68 69 69 69 69 69 69 70 70 70 70 70 70 71 70 70 70 69 69 69 69 68 68 66 65 65 64 63
55 54 50 50 50 47 43 38 31 29 25 23 27 21 24 25 23 24 23 26 29 29 30 30 28 28 27 25 22 25 27 25 25 32 32 42 44 50 54 62 63 65 65 67 69 70 71 72 71 72 73 73 73 73 73 73 72 72 72 71 71 71 71 70 70 70 69 69 69 68 68 69 69 69 69 69 70 69 70 70 70 70 71 70 70 69 69 69 69 69 68 67 66 65 64 63 62
54 53 51 47 44 41 39 35 31 25 23 20 23 23 25 24 27 25 24 24 25 25 30 28 29 29 29 29 26 24 28 29 28 29 31 42 38 36 57 60 63 65 65 67 69 70 71 71 71 72 73 73 73 73 73 73 72 72 72 71 71 70 71 70 70 69 69 68 68 68 69 69 69 69 69 69 68 69 69 69 69 70 70 70 70 69 69 69 68 68 67 67 66 64 63 62 61
54 53 48 45 42 40 34 32 27 24 21 22 21 23 23 26 23 26 23 23 26 27 29 34 29 31 28 25 27 26 22 24 26 35 35 42 45 47 57 61 63 65 66 68 69 70 71 70 70 72 73 73 73 73 73 73 72 72 72 71 71 70 70 70 69 69 69 68 68 68 69 69 69 69 70 69 69 69 69 69 70 70 70 70 69 69 69 68 68 67 67 66 65 63 62 61 60
51 53 47 43 40 34 34 28 24 25 21 20 19 20 27 27 23 24 24 25 26 29 29 30 28 29 29 31 28 28 27 30 32 38 42 48 52 54 58 63 65 65 67 68 69 70 70 69 70 71 73 74 73 73 73 73 73 72 72 72 71 70 70 70 69 69 70 68 68 68 69 69 69 69 69 69 68 69 68 68 69 70 69 70 69 68 68 67 67 67 66 65 64 62 60 59 59
48 46 46 43 34 37 28 25 24 22 24 21 18 24 20 21 23 26 24 24 26 30 29 27 26 29 28 25 27 29 29 29 36 37 47 46 56 58 62 64 65 66 66 67 69 70 71 68 70 71 73 73 73 73 73 73 72 72 72 71 71 70 70 69 69 69 69 68 68 68 69 68 69 70 70 69 69 69 68 69 70 70 69 69 68 67 66 66 66 66 65 65 63 62 60 58 59
46 42 40 38 37 35 29 25 24 23 27 21 25 19 20 18 23 22 21 27 30 27 28 29 25 25 24 23 26 27 29 35 36 40 49 53 57 60 64 65 65 65 66 67 69 70 70 68 70 71 72 73 73 73 73 72 72 72 72 71 71 70 70 69 69 68 69 69 68 68 69 69 69 70 70 69 69 69 69 69 70 69 69 68 66 65 65 66 66 65 65 64 64 62 59 57 58
48 38 38 34 32 34 28 25 26 26 28 21 23 22 22 21 22 23 22 24 22 22 24 27 28 24 27 25 27 28 31 33 43 46 51 57 57 62 64 65 65 64 65 66 68 69 67 68 69 70 71 73 73 73 73 73 72 72 72 71 71 70 69 69 68 68 69 69 70 69 69 69 69 70 69 69 68 69 69 69 69 69 68 67 67 66 66 65 64 64 64 64 63 61 58 56 58
40 40 38 36 28 28 26 27 26 26 26 28 27 29 37 37 24 26 25 26 26 26 23 24 28 19 20 24 26 30 31 35 38 48 57 58 60 62 64 65 64 64 65 66 67 68 69 67 68 70 70 72 72 73 73 73 72 72 72 71 71 71 70 69 68 69 70 69 69 69 69 69 69 70 70 69 69 69 69 69 69 68 67 67 67 66 65 66 67 67 65 64 63 60 58 57 57
41 36 33 31 31 25 24 25 21 24 24 24 23 23 22 25 24 27 25 21 26 20 19 24 26 23 25 23 23 29 25 34 37 54 57 57 58 62 64 63 63 65 65 66 67 68 68 66 67 68 69 71 72 72 73 73 73 72 72 71 71 71 70 70 69 68 69 69 69 69 69 69 70 70 69 69 69 69 69 69 68 68 67 67 66 66 65 65 66 66 65 64 61 59 57 56 57
33 37 35 29 25 23 25 22 23 29 24 26 27 27 26 23 24 23 25 17 20 18 17 25 25 28 23 24 26 34 31 39 50 50 51 53 57 61 64 61 63 65 65 66 67 67 68 69 66 67 68 69 70 71 72 72 72 72 72 72 71 71 71 71 70 70 71 69 70 70 69 69 70 70 70 69 69 68 68 69 68 67 67 67 66 65 64 64 65 65 64 62 60 57 56 55 56
30 34 33 25 23 23 22 20 24 25 28 24 20 21 29 24 25 19 19 18 18 17 18 25 22 25 23 24 35 27 27 29 35 44 48 52 57 56 58 57 61 64 65 66 66 67 67 68 68 67 66 67 68 69 70 71 71 72 72 72 72 71 71 71 70 70 70 71 70 71 70 69 70 70 70 69 69 68 68 68 68 67 67 66 66 64 63 63 65 65 63 62 60 58 57 55 55
31 32 25 22 23 25 24 23 25 32 26 21 20 23 23 21 21 19 18 18 20 17 20 22 25 24 22 30 29 28 26 27 32 46 53 56 56 55 56 57 58 62 63 64 66 66 66 67 68 68 68 65 66 66 68 69 70 71 71 71 71 71 71 71 71 71 71 71 70 71 71 70 70 70 69 69 69 69 68 68 68 67 67 66 65 64 64 63 65 64 63 61 60 58 56 53 54
35 33 26 20 27 25 23 27 24 22 22 23 22 22 22 21 20 20 18 19 19 19 22 23 24 24 26 24 26 24 22 30 39 49 53 55 55 57 57 56 57 60 61 64 66 66 66 66 67 68 68 69 69 67 66 67 68 69 70 70 70 70 70 70 70 70 70 70 70 69 69 69 69 70 70 70 68 68 68 68 68 67 67 66 64 62 64 66 65 64 62 61 60 58 55 54 54
37 35 28 26 22 25 25 26 25 23 23 25 22 22 21 27 21 20 21 19 21 19 21 26 33 25 18 24 20 26 24 32 44 52 54 54 55 55 55 57 57 57 59 62 63 65 65 66 67 67 68 69 69 70 69 69 66 67 68 68 69 69 69 69 69 69 69 69 69 68 68 67 67 67 68 68 68 68 67 66 68 68 67 65 63 62 65 65 64 63 63 62 60 58 55 54 54
38 28 25 19 21 22 25 26 27 24 24 22 24 24 22 22 21 22 22 22 25 31 23 23 26 23 24 23 26 24 29 44 50 52 53 52 54 54 54 54 55 56 58 60 63 63 64 65 66 67 68 68 69 69 69 69 66 64 66 67 67 68 68 68 67 67 66 66 67 66 64 65 65 67 64 68 65 67 66 66 66 67 67 64 62 63 66 65 64 63 63 61 60 58 56 54 54
36 32 19 16 15 22 26 26 24 22 24 26 26 21 22 22 25 21 25 23 22 22 22 23 26 25 22 21 25 28 36 43 48 49 48 48 50 51 51 51 51 53 52 55 58 62 64 64 65 66 67 68 69 69 69 69 69 64 64 64 65 66 66 66 66 65 63 63 64 63 61 68 69 69 67 69 63 68 62 62 64 66 67 66 65 65 65 65 64 63 62 61 60 57 55 54 54
32 25 22 17 11 17 22 24 25 27 23 22 25 21 23 24 23 26 24 23 23 23 23 23 22 22 23 25 32 33 37 37 38 39 40 41 43 43 42 42 45 45 47 48 50 52 57 63 65 65 66 67 68 69 69 69 69 66 68 69 69 68 65 64 68 70 64 68 59 63 67 67 68 69 68 65 68 67 63 61 62 65 66 65 65 66 65 65 64 63 62 62 59 55 52 49 45
27 26 22 16 19 21 25 25 26 22 23 23 23 25 23 25 24 24 22 22 22 22 23 22 19 23 24 31 35 35 35 36 36 36 37 37 37 37 38 40 39 39 40 41 43 47 52 56 63 65 65 66 67 68 69 69 69 69 69 68 69 65 66 66 68 68 67 67 67 67 66 68 68 68 67 67 66 62 64 59 62 63 64 63 64 66 65 65 64 63 62 61 57 53 49 46 41
33 25 22 25 24 23 27 26 26 23 24 24 24 25 25 25 24 26 26 22 22 25 21 21 20 21 25 31 35 35 35 35 36 36 36 37 37 37 37 38 37 39 39 40 42 48 47 50 54 62 65 66 67 67 68 69 69 69 69 69 69 69 70 69 68 68 67 67 68 67 67 66 67 67 62 62 62 67 66 59 60 61 62 61 62 64 64 64 64 63 62 58 53 49 45 39 37
31 26 23 25 27 23 23 28 26 25 25 26 25 25 26 25 24 26 23 21 23 21 23 23 21 23 30 33 34 35 34 34 35 36 36 36 37 37 36 37 38 38 40 41 44 43 45 47 49 55 63 66 66 66 67 68 68 69 69 69 68 68 68 69 69 68 68 68 67 67 67 66 67 67 67 66 65 65 65 65 63 64 65 63 59 61 62 62 62 62 58 53 51 50 46 38 36
32 27 27 27 29 27 25 29 31 28 27 24 25 25 27 26 26 24 24 23 21 23 23 24 31 34 33 33 34 34 34 34 34 35 35 35 36 36 36 37 38 39 41 42 43 43 45 46 48 50 56 64 66 66 67 67 68 68 68 68 69 68 68 68 68 67 68 68 68 68 67 67 66 66 66 66 66 63 63 62 62 63 63 63 62 61 60 60 60 59 57 54 49 46 43 39 40
26 26 29 30 29 27 29 27 28 25 26 26 26 27 24 23 23 25 24 24 23 28 31 32 33 34 33 33 33 33 33 34 34 34 35 35 35 36 36 36 37 38 40 42 43 45 47 49 51 50 54 61 65 66 67 67 67 67 68 68 67 67 68 68 68 68 67 67 67 66 66 66 66 67 66 65 65 64 63 62 62 62 62 62 62 61 61 61 60 57 56 53 47 45 41 41 40
25 22 27 28 30 28 28 29 28 26 27 24 26 24 23 22 20 23 22 23 28 32 33 32 32 32 32 31 32 32 32 33 33 34 35 34 35 35 36 36 37 39 41 42 44 45 48 51 53 52 53 60 64 66 66 67 67 67 67 66 67 66 66 67 67 67 67 67 67 67 66 66 65 65 65 65 65 64 63 62 61 61 62 62 60 61 60 59 57 56 55 51 48 46 45 42 40
30 26 29 29 30 30 30 27 25 26 26 26 26 23 22 21 21 22 20 23 30 32 32 31 31 31 31 31 31 32 32 32 32 33 34 34 35 36 37 36 37 39 40 42 44 46 48 51 54 54 53 59 63 66 66 66 67 67 66 67 67 64 67 66 65 66 65 64 65 66 66 66 65 65 64 64 64 64 64 63 63 61 60 60 60 59 60 59 57 56 55 52 49 48 45 45 43
30 25 28 25 23 23 22 22 22 22 22 22 22 21 22 22 24 19 20 23 29 31 31 31 30 30 30 31 31 31 31 31 33 32 33 34 35 34 35 35 36 37 39 40 43 44 46 50 55 56 57 60 63 65 65 65 66 66 66 66 66 64 67 66 66 65 65 65 64 63 64 65 64 64 63 62 64 63 61 60 60 59 58 58 59 59 59 59 58 55 54 53 50 49 47 45 44
28 28 28 24 22 21 25 22 22 22 22 22 20 20 21 22 22 20 20 21 29 30 30 30 30 30 30 30 30 31 31 31 31 32 32 33 33 33 34 35 35 37 39 41 42 44 46 50 55 56 58 59 62 63 64 64 65 65 65 65 65 65 65 65 65 66 66 65 64 63 62 63 64 62 62 62 62 62 61 59 59 59 58 57 59 60 57 58 57 57 55 54 52 49 49 44 43
23 24 23 22 21 21 21 21 20 21 20 21 20 20 22 20 23 18 19 26 31 29 29 29 29 29 29 30 30 31 30 31 31 32 31 32 32 32 33 33 34 36 38 39 40 43 46 49 54 55 57 60 60 61 62 63 63 64 63 64 64 64 64 65 64 63 62 63 62 62 61 62 62 64 63 61 61 61 61 60 60 59 59 58 58 58 56 56 56 54 53 53 50 49 48 43 41
24 23 22 22 21 21 21 21 20 23 20 21 21 21 22 22 19 23 23 30 30 29 29 29 29 29 29 29 29 29 30 30 30 31 31 32 32 32 32 33 34 35 37 38 40 44 44 48 52 55 56 57 59 59 59 59 59 59 58 58 58 57 57 57 57 57 58 58 58 58 59 59 60 60 60 60 60 61 60 59 59 58 58 58 56 56 55 54 53 53 52 50 50 48 47 45 43
22 21 20 21 21 22 22 24 22 22 21 21 22 23 23 20 20 20 25 30 30 29 28 28 28 28 28 29 29 29 29 29 29 30 30 31 31 32 32 33 34 35 36 37 40 43 44 47 51 54 56 56 56 57 57 57 56 56 55 55 54 55 55 55 54 55 55 55 55 55 56 57 58 59 59 59 58 58 57 57 57 57 57 56 55 56 56 55 54 54 52 52 50 51 50 48 45
24 22 23 22 22 22 22 25 24 22 23 20 22 24 22 21 19 22 26 22 29 28 28 28 28 28 28 28 28 28 28 29 29 29 30 31 31 31 32 32 32 34 35 36 38 39 41 45 49 53 54 55 55 54 54 53 53 52 51 51 50 51 51 51 52 51 51 52 52 52 53 54 55 56 57 57 57 57 56 56 55 55 55 55 54 54 54 53 53 53 51 53 50 50 50 48 48
25 22 25 26 21 23 24 28 23 22 19 19 21 25 21 20 19 27 28 30 28 28 28 27 27 27 27 27 27 27 27 28 28 28 29 29 30 30 31 32 32 33 34 35 37 39 39 41 47 50 52 52 52 51 50 48 47 46 44 44 43 43 44 45 47 48 49 49 49 50 49 51 53 53 54 55 55 55 55 54 54 54 54 54 54 53 53 53 52 52 50 51 52 51 49 50 44
24 23 26 24 23 22 21 24 26 27 20 20 20 22 18 20 20 28 29 29 28 27 27 27 27 27 27 26 26 26 27 27 28 27 28 29 30 30 30 31 31 32 33 34 35 37 38 40 41 45 48 49 47 46 45 44 42 41 39 38 37 37 37 38 39 39 41 40 40 43 44 46 48 50 51 52 52 52 53 53 53 53 54 54 53 53 52 52 52 51 49 48 49 50 48 47 47
25 24 22 25 21 21 21 23 25 27 20 18 23 19 18 20 23 29 29 29 28 27 26 26 26 26 26 26 26 26 26 26 26 26 27 28 28 29 29 32 31 31 32 33 34 36 37 38 40 42 44 45 45 44 42 41 39 38 37 37 37 34 34 34 34 35 35 36 35 36 38 41 43 44 47 48 50 49 50 50 51 51 53 53 52 52 50 50 50 51 49 45 46 47 47 46 44
24 23 23 22 22 22 21 23 23 23 24 24 23 20 19 19 28 29 28 28 27 27 26 26 26 26 26 26 25 25 26 25 26 26 27 28 28 28 28 30 30 30 30 31 32 34 36 37 38 39 40 41 43 42 42 40 38 36 35 35 34 34 33 32 32 33 33 33 34 35 35 36 37 39 41 43 44 45 46 47 48 50 51 51 50 49 49 49 49 49 50 49 46 46 47 45 40
25 24 23 24 22 22 21 22 24 24 23 23 23 23 23 23 26 29 29 28 27 27 27 26 26 26 25 25 25 25 26 25 27 28 28 28 28 28 28 28 29 29 29 30 32 32 33 35 36 37 37 38 40 40 39 36 35 35 35 34 34 33 32 31 30 30 30 31 32 32 33 34 35 36 37 39 40 41 42 43 44 47 48 48 46 46 46 46 46 47 46 46 46 46 44 40 38
25 26 25 23 23 24 25 24 25 25 24 23 23 23 23 23 27 29 29 28 27 26 25 26 26 26 26 25 26 26 25 25 29 28 27 28 28 28 28 28 29 28 28 29 30 31 31 32 34 34 36 37 37 37 37 37 35 33 32 32 31 30 29 28 27 27 26 27 29 30 31 32 34 34 35 36 37 37 38 39 40 42 44 43 43 44 46 45 45 45 46 42 42 42 40 35 36
23 25 25 23 26 22 24 24 25 26 24 23 22 23 23 23 27 28 28 28 27 27 26 26 25 26 26 26 25 26 26 30 28 26 26 26 27 28 28 28 29 27 27 27 29 30 31 31 32 33 34 35 36 35 35 35 34 33 31 29 28 27 26 24 22 22 22 25 24 25 26 28 30 31 32 34 34 35 35 35 36 37 39 39 39 40 40 41 41 43 45 45 44 43 40 36 38
24 22 23 23 22 25 25 26 27 26 25 23 24 23 23 23 27 28 27 27 27 28 28 27 26 26 26 26 26 25 26 25 25 25 26 25 27 27 27 27 27 27 27 27 28 29 30 30 31 31 32 34 35 34 33 33 33 33 31 29 26 23 24 23 21 21 21 20 21 22 23 23 24 26 28 30 31 32 33 33 33 34 35 36 36 35 36 36 37 38 40 40 41 43 42 40 36
22 24 22 21 25 25 25 26 27 27 23 24 26 24 24 26 26 26 27 27 27 28 27 28 28 26 25 25 26 25 25 26 24 24 24 24 25 25 26 26 27 27 26 26 26 27 28 29 29 30 30 31 33 34 33 32 30 28 27 26 25 22 19 20 19 19 20 20 20 22 23 23 23 23 25 25 25 27 29 29 30 31 32 33 34 33 34 35 35 36 37 37 39 36 36 36 36
26 24 23 23 26 25 25 24 26 26 26 26 25 25 24 25 25 26 25 27 26 27 25 25 27 28 28 28 27 28 25 25 25 24 24 24 24 24 25 26 26 26 26 26 26 26 26 27 28 28 28 28 29 31 32 32 29 27 25 23 22 20 19 17 17 17 19 20 20 21 21 23 23 23 24 24 24 24 25 26 26 26 27 29 30 31 31 33 34 35 36 36 36 36 35 35 35
26 27 24 23 25 24 26 27 25 25 26 27 25 23 22 24 24 25 26 26 25 26 24 24 25 26 26 25 26 26 27 26 25 24 24 24 24 24 24 25 25 25 25 26 26 25 25 25 26 26 26 26 26 26 26 25 24 23 19 16 14 15 16 19 18 17 18 19 19 20 21 22 23 23 23 24 24 24 24 25 25 25 25 25 26 27 28 30 32 33 34 34 35 35 34 34 33
26 27 27 25 25 26 27 27 27 23 22 25 23 21 19 23 23 26 26 25 24 25 25 25 25 25 26 25 26 26 26 25 25 25 24 24 24 24 23 24 25 24 24 25 24 22 23 24 24 24 24 24 27 24 24 20 18 17 16 17 17 16 17 18 19 20 19 19 20 19 20 21 22 22 22 23 23 23 23 24 24 24 24 24 24 24 25 27 28 31 32 32 32 34 34 32 32
26 28 28 27 27 26 27 26 27 25 26 28 24 23 19 19 23 26 26 25 24 24 23 24 24 24 24 25 26 26 26 26 25 25 25 25 24 24 23 23 24 24 24 23 23 22 21 20 21 21 22 22 22 22 21 21 18 19 19 19 19 18 19 19 19 19 21 20 19 20 20 20 21 22 22 22 23 23 23 23 23 23 23 23 23 23 24 25 26 28 29 30 29 30 32 31 30
28 29 28 28 27 27 27 27 25 23 23 24 24 26 21 20 23 25 25 24 24 24 23 23 23 25 24 25 26 26 26 26 25 25 25 25 25 24 24 23 23 23 24 23 22 21 21 21 20 19 19 19 20 22 20 20 20 19 19 19 19 20 20 20 20 20 19 20 20 20 20 20 20 22 22 22 23 22 23 23 23 22 23 22 22 23 23 24 25 25 26 26 27 27 28 30 29
29 28 27 26 26 26 26 24 23 21 20 20 22 24 19 21 24 23 24 25 24 24 23 23 23 24 24 24 25 25 26 26 26 26 26 25 25 25 24 23 22 24 24 24 21 21 21 20 20 19 19 19 20 19 19 20 20 19 19 20 21 20 19 19 19 19 19 20 19 20 20 19 21 20 21 22 22 22 22 22 22 22 22 22 22 22 23 23 23 24 24 25 26 25 26 27 27
29 27 26 26 24 22 22 21 20 19 16 21 23 23 22 19 23 22 23 24 24 24 24 23 24 24 24 25 24 26 25 25 25 25 25 24 24 23 23 21 21 22 24 22 22 21 21 20 18 19 20 20 20 20 21 21 20 20 20 21 21 21 21 20 19 19 19 19 19 19 19 19 20 21 21 20 22 22 22 22 22 22 22 22 21 21 21 20 20 21 22 23 25 24 24 26 25
27 26 24 26 25 17 16 12 19 16 15 16 18 22 22 20 20 22 23 25 25 24 23 23 23 23 23 24 25 24 24 25 26 24 23 22 20 21 21 20 20 21 22 22 22 22 21 20 19 19 20 21 21 21 21 21 21 22 21 21 21 21 20 21 19 20 19 19 19 18 18 18 18 20 20 20 21 21 21 20 21 21 21 21 20 20 20 20 19 20 19 19 21 23 23 23 23
27 26 26 23 17 15 14 13 14 15 16 18 21 22 20 21 22 22 22 24 25 25 24 23 23 22 23 24 25 25 25 25 25 24 23 23 21 20 20 20 21 21 21 21 22 22 20 20 19 19 20 21 21 21 21 21 22 21 22 21 21 21 21 21 21 21 21 19 19 18 18 18 18 19 19 20 21 22 21 20 19 20 20 20 21 21 20 21 20 18 19 19 19 21 20 22 20
26 25 24 21 15 14 10 10 6 12 15 17 19 21 18 21 21 23 22 24 26 26 27 26 23 22 23 24 25 25 25 25 25 24 24 22 21 21 21 20 21 21 21 23 23 22 21 20 19 19 20 21 21 21 21 21 21 22 21 21 22 21 21 21 20 20 21 20 20 19 19 19 19 19 19 20 21 22 21 21 21 20 21 21 21 21 20 20 21 18 19 18 19 19 20 21 20
25 26 26 25 18 10 12 8 14 17 17 16 17 15 15 18 20 25 25 26 26 26 26 27 26 24 24 24 25 25 25 25 25 24 23 22 22 21 21 22 22 22 22 23 22 22 22 21 20 19 19 20 20 20 21 21 22 22 22 22 22 21 21 21 20 21 20 20 20 20 20 20 19 19 19 20 22 22 21 21 21 20 21 21 20 21 21 19 21 18 18 19 17 19 20 20 19
25 26 26 22 23 21 16 13 11 7 12 12 13 17 19 21 23 26 25 25 25 26 26 27 27 24 24 24 24 24 24 24 25 24 24 23 22 22 22 22 22 22 22 23 22 23 22 21 20 20 20 20 21 20 20 20 21 21 22 22 22 22 22 21 22 21 21 21 20 19 20 20 20 19 20 20 21 21 21 21 20 20 21 21 19 20 19 17 21 17 17 17 17 21 19 20 19
25 26 22 26 26 22 17 15 13 12 12 18 11 18 22 24 23 25 25 24 24 24 25 26 26 24 24 23 23 23 23 24 24 24 23 22 23 23 22 21 22 22 22 22 22 22 22 22 22 21 21 21 21 20 20 20 20 20 20 20 20 21 20 19 19 20 20 20 20 20 19 20 20 19 20 20 19 19 19 19 18 18 18 18 18 17 18 17 18 16 16 17 16 17 18 18 17
26 22 26 27 26 26 21 17 10 5 15 16 16 18 18 19 19 24 24 24 24 24 24 25 25 23 23 23 23 23 23 24 24 24 23 22 22 22 22 23 22 22 22 22 22 23 23 23 22 21 22 21 21 21 20 20 20 20 20 20 20 20 19 19 20 19 19 19 19 19 19 19 19 19 19 20 18 18 18 18 17 17 17 17 16 15 16 16 16 14 15 15 15 17 16 16 16
26 25 28 25 19 19 22 17 15 13 11 13 14 19 19 20 21 22 23 23 24 24 24 24 24 23 23 23 23 23 23 24 24 23 23 23 22 22 22 22 22 23 23 22 23 23 23 22 22 22 21 21 22 22 21 21 21 22 22 21 20 20 19 19 19 19 18 18 18 18 18 18 19 18 17 17 17 17 16 16 16 15 15 15 14 14 15 14 14 12 13 13 13 14 13 13 14
28 27 25 27 23 19 17 21 16 19 12 10 17 15 18 20 21 22 22 23 24 24 24 23 24 23 23 22 22 22 23 23 23 23 23 22 21 21 21 21 22 22 23 23 23 24 22 22 23 22 23 23 23 23 23 21 22 21 21 20 20 20 19 19 18 17 17 18 18 18 17 17 17 17 17 17 16 16 15 14 14 14 13 13 12 13 13 12 12 11 11 12 12 13 12 12 12
24 24 24 25 21 24 24 19 18 16 7 10 13 18 17 21 22 22 22 23 24 24 24 24 24 24 23 22 22 22 23 23 23 23 23 22 21 21 22 23 23 24 24 24 24 23 23 24 23 23 21 22 22 22 22 22 22 21 19 18 18 18 17 17 16 16 15 17 18 18 17 17 16 16 15 14 14 14 13 13 12 11 10 10 11 11 11 11 10 10 10 11 11 11 11 11 12
25 25 24 25 24 19 19 21 22 15 17 17 12 19 16 23 25 23 22 23 25 25 25 25 25 24 24 23 22 22 23 23 23 23 22 21 21 21 23 26 26 25 25 24 23 22 23 22 21 21 20 20 19 21 21 21 20 19 18 18 17 16 17 16 14 14 14 15 15 16 16 14 12 14 14 13 12 12 11 10 9 9 9 9 9 10 9 9 9 8 8 9 10 10 10 10 10